Regional Weather Roundup
Issued by NWS

Home | Current Version | Previous Version | Text Only | Print | Product List | Glossary Off
Versions: 1 2 3 4 5 6 7 8 9 10 11 12 13 14 15 16 17 18 19 20 21 22 23 24 25 26 27 28 29 30 31 32 33 34 35 36 37 38 39 40 41 42 43 44 45 46 47 48 49 50

000
ASUS44 KMEG 290110
RWRTN
TENNESSEE HOURLY STATE WEATHER ROUNDUP
NATIONAL WEATHER SERVICE MEMPHIS TN
800 PM CDT TUE MAR 28 2017

TNZ002-004-019-021-049-052-054-088>092-290200-
WEST TENNESSEE

CITY           SKY/WX    TMP DP  RH WIND       PRES   REMARKS
MEMPHIS INTL   CLEAR     72  55  55 NE10      29.94S
NWS MEMPHIS      N/A     69 N/A N/A MISG        N/A
JACKSON        CLEAR     65  56  72 N7        29.98R
DYERSBURG      CLEAR     63  54  72 NE7       30.00
SOMERVILLE     CLEAR     68  55  64 CALM      29.96R
BOLIVAR        CLEAR     66  55  68 CALM      29.96S
PARIS          CLEAR     57  52  82 NE8       30.03R
HUNTINGDON     CLEAR     61  54  77 NE7       30.00S
SAVANNAH       CLEAR     64  57  77 CALM      29.97R HAZE
$$

TNZ008-025-027-028-033-062-065-066-290200-
NORTH MIDDLE TENNESSEE

CITY           SKY/WX    TMP DP  RH WIND       PRES   REMARKS
NASHVILLE      PTCLDY    62  53  72 NE10      30.04R
PORTLAND       CLOUDY    61  55  82 N6        30.05S
CLARKSVILLE    CLEAR     56  52  86 NE5       30.04S
SMYRNA         CLEAR     63  54  72 N6        30.04R
COOKEVILLE     CLOUDY    63  52  67 N5        30.03R
GALLATIN       PTCLDY    61  54  77 N8        30.07R
CROSSVILLE     CLOUDY    60  49  66 N6        30.06R
$$

TNZ061-075-076-078-094-096-097-290200-
SOUTH MIDDLE TENNESSEE

CITY           SKY/WX    TMP DP  RH WIND       PRES   REMARKS
FAYETTEVILLE   CLEAR     63  54  72 NE6       30.00S
TULLAHOMA      CLEAR     63  52  67 NE3         N/A
WINCHESTER     CLEAR     57  54  88 NE5       30.02R
MCMINNVILLE    MOCLDY    61  54  77 NE5       30.03S
COLUMBIA       CLEAR     66  55  68 NE8       29.99R
SHELBYVILLE    CLEAR     63  55  77 NE8       30.02S
$$

TNZ017-018-042-046-047-290200-
NORTHEAST TENNESSEE

CITY           SKY/WX    TMP DP  RH WIND       PRES   REMARKS
TRI CITIES     CLOUDY    63  50  62 NW7       30.03R
ELIZABETHTON   CLOUDY    63  50  63 NW5       30.02R
$$

TNZ012-013-036-069-073-074-290200-
CENTRAL EAST TENNESSEE

CITY           SKY/WX    TMP DP  RH WIND       PRES   REMARKS
KNOXVILLE      PTCLDY    67  49  52 NW6       30.00R
OAK RIDGE      CLEAR     65  50  58 VRB3      30.03R
DOWNTOWN KNOXV MOCLDY    66  54  63 VRB3      30.01R
GATLINBURG     CLOUDY    64  50  59 CALM      30.00R
MORRISTOWN     MOCLDY    64  52  63 N7        30.01R
JACKSBORO      CLEAR     63  48  59 CALM      30.06R
$$

TNZ083-085-099-290200-
SOUTHEAST TENNESSEE

CITY           SKY/WX    TMP DP  RH WIND       PRES   REMARKS
CHATTANOOGA    CLEAR     67  52  58 N10       29.99R
$$

SKY/WX REPORTED AS FAIR MEANS FEW OR NO CLOUDS BELOW
12 THOUSAND FEET.





USA.gov is the U.S. government's official web portal to all federal, state and local government web resources and services.